Location: Carrières
(48.9495°N, 2.0407°E)
Time: 19:59:32
(UTC+00:00)

Transit 2A Rocket - Pass Details

Date: 28 April 2024
Orbit: 585 x 908 km, 66.7° (Epoch: 18 May)

Event Time Altitude Azimuth Distance (km) Brightness Sun altitude
Rises 10:50:06 0° 240° (WSW) 2,928 8.1 53.4°
Reaches altitude 10° 10:52:25 10° 248° (WSW) 2,064 7.4 53.5°
Maximum altitude 10:56:47 38° 317° (NW) 1,058 5.9 53.8°
Drops below altitude 10° 11:01:35 10° 26° (NNE) 2,266 7.3 54.1°
Sets 11:04:15 0° 34° (NE) 3,253 8.0 54.2°
